Temperature
20 20 20 20 23 24 24 23 23 23 22 21 21 21 22 21 21 19 17 17 17 17 17 17 17 17 17 17 17 17 17 17 17 17 17 17 17 17 17 17 17 17 17 17 17 17 17 18 18
20 20 20 22 25 24 23 23 23 23 22 21 21 21 21 20 18 17 17 16 16 16 16 16 17 17 17 17 17 17 17 17 17 17 17 17 16 17 17 17 17 17 17 17 17 17 17 17 17
20 20 21 24 25 24 23 23 23 22 21 21 21 20 20 19 18 17 16 16 16 16 16 16 17 17 17 17 17 17 16 16 16 16 16 16 16 16 16 16 16 16 16 17 17 17 17 17 17
20 21 23 25 23 23 23 23 23 22 22 21 22 21 19 17 17 17 16 16 16 16 16 16 16 16 16 16 16 16 16 16 16 16 16 16 16 16 16 16 16 16 16 16 16 17 17 17 17
20 23 24 24 23 23 23 23 22 23 22 22 21 21 18 17 17 17 16 16 16 16 16 16 16 16 16 16 16 16 16 16 16 16 16 16 16 16 16 16 16 16 16 16 16 16 16 17 17
22 24 24 24 23 23 23 22 23 23 22 21 21 21 18 17 17 17 16 16 16 16 16 16 16 16 16 16 16 16 16 16 16 16 16 16 16 16 16 16 16 16 16 16 16 16 16 17 17
23 24 24 24 23 23 23 22 23 22 22 21 21 21 18 17 17 17 16 16 16 16 16 16 16 16 16 16 16 16 16 16 16 16 15 15 16 16 15 15 15 16 16 16 16 16 16 16 16
22 24 24 24 23 23 23 22 22 22 21 20 20 21 19 17 17 17 16 16 16 16 16 16 16 15 15 15 16 16 15 15 15 15 15 15 15 15 15 15 15 16 16 16 16 16 16 16 16
22 24 24 24 23 23 23 22 21 21 21 20 20 20 19 17 17 17 17 16 16 16 16 16 16 16 16 15 15 15 15 15 15 15 15 15 15 15 15 15 15 16 16 16 16 16 16 16 16
24 24 24 24 24 24 23 23 22 22 21 20 19 18 18 17 17 17 17 17 17 17 16 16 16 16 16 16 16 15 15 15 15 15 15 15 15 15 15 15 15 15 16 16 16 16 16 16 16
24 24 23 23 23 23 23 22 22 22 22 21 20 18 18 17 17 18 18 17 17 17 16 16 16 16 16 16 16 16 16 15 15 15 15 15 15 15 15 15 15 15 15 15 15 16 16 16 16
23 23 23 23 22 22 23 22 22 22 21 20 20 19 18 18 18 18 18 17 17 17 17 16 16 16 16 16 16 16 16 16 15 15 15 15 15 15 15 15 15 15 15 15 15 15 15 16 16
23 23 22 22 22 22 22 22 22 21 20 19 19 18 18 18 18 18 18 18 17 17 17 16 16 17 16 16 16 16 16 16 16 15 15 15 15 15 15 15 15 15 15 15 15 15 15 15 16
23 23 22 22 22 22 22 22 22 20 19 19 19 19 19 18 18 18 18 18 18 17 17 16 16 16 16 16 16 16 16 16 16 15 15 15 15 15 15 16 15 15 15 15 15 15 15 15 15
22 23 23 22 22 22 22 22 22 20 20 19 19 19 19 18 18 18 18 18 18 17 17 17 16 16 16 16 16 16 16 16 16 16 16 16 16 16 16 16 15 15 15 15 15 15 15 15 15
23 23 23 23 23 22 23 22 22 20 20 20 20 19 19 18 18 18 18 18 18 17 17 17 16 16 16 16 16 16 16 16 16 16 16 16 16 16 16 15 15 15 15 15 15 15 15 15 15
23 23 23 23 23 23 23 23 22 20 20 20 20 20 19 19 19 18 18 18 17 17 17 17 16 16 16 16 16 16 16 15 15 16 15 16 16 16 15 15 15 15 15 15 15 15 15 15 15
23 23 23 23 23 23 23 23 23 21 20 21 21 20 20 20 19 19 18 18 17 17 17 17 16 16 16 16 16 16 15 15 15 15 15 15 15 15 15 15 15 15 15 15 15 15 15 15 15
24 23 23 23 23 23 23 23 23 22 21 21 21 20 20 20 19 19 18 17 17 17 17 17 16 16 16 16 16 16 15 15 15 15 15 15 15 15 15 15 15 15 15 15 15 15 15 15 15
23 23 23 23 23 23 23 23 23 23 21 21 21 21 20 20 19 18 18 18 17 17 17 17 17 16 16 16 16 15 15 15 15 15 15 15 15 15 15 15 15 15 15 15 15 15 15 15 15
23 23 23 23 22 23 23 23 23 23 22 21 21 21 21 20 20 19 18 18 17 17 17 17 17 16 16 16 15 15 15 15 15 15 15 15 15 15 15 15 15 15 15 15 15 15 15 15 15
23 23 23 22 22 23 22 23 24 23 22 22 21 21 21 20 20 19 19 18 18 17 17 17 16 16 16 16 16 15 15 15 15 15 15 15 15 15 15 15 15 15 15 15 15 15 15 15 15
23 23 23 23 23 22 23 23 24 23 23 23 22 21 21 20 20 19 19 18 18 17 17 17 16 16 16 16 16 15 15 15 15 15 15 15 15 15 15 15 15 15 15 15 15 15 15 15 15
22 22 22 22 23 22 23 23 23 24 24 24 23 22 21 20 20 19 18 18 18 17 17 17 16 16 16 16 16 15 15 15 15 15 15 15 15 15 15 15 15 15 15 15 15 15 15 15 15
23 23 22 22 22 23 23 23 24 24 24 23 23 22 21 20 20 19 18 18 18 17 17 17 17 16 16 16 16 16 15 15 15 15 15 15 15 15 15 15 15 15 15 15 15 15 15 15 15
23 23 22 22 22 23 22 23 24 24 23 22 22 22 21 20 20 19 18 18 18 18 17 17 17 16 16 16 16 16 16 15 15 15 15 15 15 15 15 15 15 15 15 15 15 15 15 15 15
23 23 23 23 23 22 23 24 24 24 23 23 22 21 21 20 19 19 18 18 18 18 18 17 17 16 16 16 16 16 16 16 15 15 15 15 15 15 15 15 15 15 15 15 15 15 15 15 15
23 23 22 22 21 22 23 23 24 24 24 23 22 21 21 20 19 19 18 18 18 18 18 17 17 17 16 16 16 16 16 16 15 15 15 15 15 15 15 15 15 15 15 15 15 15 15 15 15
22 22 22 23 22 22 22 23 24 24 24 23 23 22 21 20 19 19 18 18 18 18 18 17 17 17 16 16 16 16 16 16 15 15 15 15 15 15 15 15 15 15 15 15 15 15 15 15 15
23 22 22 22 22 22 22 23 24 23 23 23 22 21 20 20 19 19 18 18 18 18 18 17 17 17 17 16 16 16 16 16 15 15 15 15 15 15 15 15 15 15 15 15 15 15 15 15 14
Wind_Speed
2 2 2 2 3 2 4 4 4 4 4 5 6 5 6 7 5 5 3 4 4 5 6 7 7 7 8 9 10 10 10 10 10 9 9 10 9 10 10 10 10 10 10 11 10 10 10 10 10
1 1 3 3 2 3 5 5 6 6 5 5 5 6 6 7 6 5 4 4 5 6 6 8 8 8 9 9 9 10 10 10 9 9 8 8 8 8 9 9 9 9 10 10 9 9 9 9 9
2 2 2 1 1 3 5 5 7 7 5 3 4 5 5 5 5 4 5 5 6 7 8 10 9 10 10 11 10 10 10 9 9 8 8 8 8 8 9 9 8 8 9 9 8 9 9 9 9
2 2 1 2 7 6 5 5 6 6 5 4 5 6 5 6 4 5 7 7 8 8 9 12 11 12 11 11 11 10 10 9 9 8 8 8 8 8 8 8 7 8 8 8 7 8 8 8 8
2 2 2 5 6 5 5 5 4 4 4 5 5 7 6 5 7 8 8 7 8 8 9 12 11 11 11 11 10 10 10 10 9 9 8 9 9 8 8 8 8 8 8 8 7 7 8 8 8
1 2 3 5 7 6 5 4 4 6 7 6 6 7 6 6 7 7 7 7 8 8 8 10 11 10 11 11 10 10 10 10 10 10 9 9 9 8 8 8 8 8 8 8 7 8 8 8 8
1 1 3 6 6 5 4 3 4 5 6 5 4 6 6 6 7 7 7 8 7 7 7 7 8 10 10 10 9 9 9 9 9 9 9 9 9 8 7 7 8 8 8 7 7 8 8 8 8
1 2 4 4 5 5 5 4 4 4 5 5 2 4 6 8 8 7 7 7 7 7 6 7 7 7 7 9 10 9 9 9 9 9 9 8 8 8 7 7 8 7 7 6 7 7 8 8 8
1 2 4 4 3 5 6 5 4 3 5 4 4 6 8 11 9 8 7 7 7 6 6 6 6 6 6 7 8 7 8 7 6 8 7 4 6 7 7 9 8 7 6 6 6 7 7 7 8
0 2 3 3 3 5 6 4 5 5 6 6 8 9 11 11 9 8 7 7 7 7 6 5 5 5 5 5 5 5 6 5 5 6 6 5 6 6 7 9 7 7 7 7 6 6 5 4 6
2 3 4 4 4 6 6 5 4 4 4 5 8 12 12 10 9 7 6 6 6 6 5 4 4 4 4 4 4 4 4 4 5 5 5 4 5 5 5 5 6 6 5 5 6 5 4 5 5
4 5 4 4 5 5 5 5 4 2 4 5 8 12 11 10 8 7 6 6 5 5 4 3 3 3 4 4 4 3 3 3 4 4 4 4 4 4 4 4 5 4 4 4 4 4 6 6 7
5 5 5 5 5 5 5 4 4 5 6 7 10 11 10 9 8 6 6 5 5 4 4 3 3 4 5 4 3 3 4 3 5 3 3 4 4 4 4 4 4 4 5 5 4 5 7 6 7
5 6 6 5 5 4 5 5 4 6 8 9 10 9 9 8 7 6 6 5 5 4 4 3 3 3 4 4 3 4 4 4 4 4 3 4 4 4 3 5 4 5 5 5 5 7 6 6 7
6 6 5 4 4 4 5 4 4 8 9 10 9 8 8 7 7 6 5 5 4 4 4 4 3 3 3 4 4 4 3 4 4 4 4 5 5 5 4 4 4 5 6 6 6 7 7 6 7
4 4 3 3 3 4 5 3 5 9 10 10 9 9 8 7 6 5 5 5 4 4 5 5 4 3 4 4 4 4 4 4 4 3 3 4 5 5 5 4 4 5 5 5 5 5 5 6 6
5 4 3 4 4 4 5 3 6 9 10 9 9 9 8 8 7 6 6 5 5 5 5 6 5 4 3 4 4 4 4 3 3 4 3 3 4 4 4 4 4 5 5 4 5 5 5 6 6
4 4 4 4 4 5 6 5 5 9 10 10 10 9 9 9 8 7 6 5 6 6 6 6 5 4 4 3 3 3 3 3 4 4 4 3 2 3 4 4 4 5 4 4 4 5 5 5 5
3 4 4 2 2 4 6 7 7 9 11 11 11 10 10 9 8 7 7 7 7 7 7 6 6 6 4 3 2 3 3 3 3 4 4 2 2 2 3 3 4 4 4 4 5 5 6 5 5
6 6 4 2 2 4 5 7 7 9 12 12 12 11 11 10 9 9 8 9 9 8 8 7 6 6 5 2 2 2 3 3 3 2 3 2 2 2 3 3 4 4 4 4 5 4 4 4 2
7 7 5 3 2 4 5 6 7 7 10 11 12 11 11 12 11 11 10 10 10 9 9 7 7 7 5 4 3 3 3 3 3 2 2 3 3 3 3 3 3 4 4 4 4 4 3 3 2
6 4 4 4 5 3 4 4 4 6 8 11 13 12 12 12 12 11 11 11 11 10 9 8 8 7 6 5 4 4 3 3 2 2 3 3 3 3 3 3 3 3 3 4 4 3 2 2 2
2 1 4 5 6 6 6 6 3 5 7 9 12 13 13 13 13 12 12 12 11 10 9 8 8 7 6 5 5 4 3 3 3 3 3 3 4 4 3 3 3 3 2 2 2 2 2 2 1
4 4 3 4 5 6 5 6 3 3 4 5 8 11 12 13 13 12 12 11 10 9 9 8 8 7 6 6 6 5 4 4 4 4 4 3 3 3 3 3 3 3 2 2 2 2 2 1 1
6 5 4 5 5 4 2 5 4 0 2 4 5 8 11 12 13 13 13 12 12 11 10 9 9 8 8 7 6 5 5 4 4 4 4 3 3 3 3 3 2 2 2 2 2 2 2 1 1
8 8 5 3 3 2 4 5 1 1 1 2 4 6 9 12 12 13 13 13 12 12 11 11 10 9 8 7 6 5 5 4 3 3 3 3 3 3 3 3 3 3 3 3 3 2 2 1 2
7 8 5 5 4 5 4 3 2 2 2 1 2 5 8 11 12 13 13 13 13 13 12 11 11 10 9 8 7 6 5 5 4 4 4 3 3 3 3 3 3 4 3 3 3 2 2 2 2
5 5 5 5 4 5 4 4 2 2 1 2 2 4 7 10 12 13 12 12 12 12 11 11 11 10 9 8 7 5 5 5 4 4 4 4 4 3 4 4 4 4 4 3 3 3 3 3 3
7 7 6 6 6 5 4 1 2 1 1 1 2 4 6 9 11 12 12 12 12 11 11 11 11 10 9 9 8 7 6 6 6 5 5 4 4 5 5 4 4 4 4 4 4 3 3 3 4
9 9 9 7 6 6 5 2 3 2 2 2 2 3 5 8 10 11 11 12 12 12 12 11 11 11 10 9 9 8 7 7 6 6 5 5 4 4 4 4 4 4 4 3 3 3 3 3 3
Wind_Direction
203 194 212 229 217 125 80 71 79 90 76 69 66 67 71 52 37 73 70 48 60 69 73 87 85 88 94 99 101 100 102 103 100 98 97 100 103 102 103 102 99 97 95 94 92 90 88 86 84
204 198 230 241 227 118 88 82 84 75 96 103 77 67 72 69 62 84 79 66 69 74 76 80 86 91 94 96 100 102 102 103 107 104 99 97 101 100 98 100 97 95 95 95 94 93 89 87 86
169 241 271 251 81 76 94 96 98 94 94 97 89 63 60 68 72 80 78 86 83 81 80 81 82 88 89 89 92 97 97 100 104 106 103 102 100 100 97 95 94 92 93 95 96 94 89 84 81
210 222 231 100 91 69 84 101 113 117 94 74 98 87 77 58 74 94 100 90 87 86 85 83 79 82 87 90 92 92 91 94 97 101 104 103 99 101 102 98 96 93 94 93 93 93 90 85 82
238 248 149 110 95 90 86 89 104 101 97 92 98 99 92 79 91 104 104 93 89 84 81 86 80 80 81 85 86 87 86 87 90 90 93 98 97 98 98 97 94 93 94 93 92 95 92 86 81
230 226 151 121 110 108 102 102 105 93 101 102 102 106 95 101 108 108 103 95 89 88 86 88 89 82 78 77 79 81 82 82 81 83 83 86 88 89 91 94 95 97 98 94 91 93 88 84 78
286 130 118 124 125 122 104 97 98 105 107 98 104 108 119 121 116 116 106 102 97 94 90 87 90 92 90 80 74 76 77 79 80 81 82 83 81 82 87 91 95 97 93 91 88 87 90 85 77
343 137 133 135 142 124 119 111 98 97 99 103 112 120 132 135 131 125 115 111 106 101 94 89 86 81 85 88 78 74 75 78 80 82 83 89 98 96 97 102 93 94 92 92 92 92 92 85 78
251 172 138 138 142 129 141 136 113 105 116 109 89 91 117 132 139 136 130 123 117 108 98 94 92 85 81 80 86 89 89 86 102 99 97 110 103 100 104 82 88 93 94 94 96 97 99 100 96
232 136 112 110 125 134 145 137 135 143 130 125 118 115 129 140 145 145 138 130 126 117 106 96 89 90 87 83 88 85 85 85 76 79 87 88 83 83 88 96 92 94 97 100 96 109 135 152 115
74 93 107 115 124 136 141 134 142 151 133 136 141 143 146 150 150 145 134 126 116 113 108 104 94 91 93 93 85 80 83 87 84 80 91 95 99 106 103 110 118 115 123 108 117 139 113 107 94
102 87 102 120 132 145 142 135 135 134 106 119 135 144 150 155 152 148 141 136 135 126 117 111 104 100 97 96 91 91 90 86 79 78 83 92 95 92 94 94 89 99 100 98 104 97 100 99 104
116 112 103 118 127 131 133 129 125 120 118 128 136 146 154 155 154 150 145 144 143 138 136 112 92 86 91 90 91 94 88 80 87 76 80 89 99 98 100 94 90 87 91 103 100 106 98 98 92
120 125 126 128 131 146 148 141 151 140 144 145 149 154 159 161 159 158 162 162 155 153 139 131 117 99 97 101 101 87 85 89 80 86 89 91 96 100 100 99 92 87 87 87 100 102 101 94 86
139 140 141 145 153 159 171 174 174 157 161 160 163 161 163 168 169 173 169 173 163 153 146 130 118 106 97 94 89 86 83 84 84 81 87 96 97 98 95 95 100 94 97 99 98 102 99 97 96
172 186 178 158 177 182 216 194 152 165 176 175 175 169 174 179 184 179 177 178 169 164 157 144 143 124 107 106 101 89 82 83 84 82 76 93 97 95 92 95 101 100 102 104 104 103 99 97 94
195 203 192 167 186 194 221 217 159 177 187 186 186 182 184 187 190 185 185 184 174 171 164 154 148 138 123 110 107 94 91 87 82 81 76 85 97 106 104 97 105 109 108 109 110 106 105 104 99
205 210 206 200 181 214 228 233 185 186 199 200 194 194 194 196 192 184 181 177 170 170 169 157 149 150 135 132 126 115 101 91 78 75 77 72 99 106 108 116 118 118 120 115 108 110 105 103 105
229 227 229 215 185 231 243 246 220 196 205 209 206 203 203 199 190 182 180 178 176 176 178 172 167 164 162 155 148 137 124 112 98 78 69 81 105 113 114 130 120 126 128 127 128 121 122 119 119
227 233 233 198 195 243 258 257 237 211 212 214 211 207 205 197 191 185 187 186 185 183 186 182 173 171 174 168 146 140 127 116 99 95 95 94 113 131 136 142 135 135 135 139 135 138 139 134 151
229 240 240 242 209 228 268 253 220 208 215 216 219 216 207 200 196 190 191 189 186 188 191 186 177 178 181 174 158 152 144 151 140 119 89 79 97 122 138 135 139 140 154 149 157 161 159 150 153
232 235 240 232 240 249 251 275 221 204 208 215 215 213 209 203 201 195 192 190 192 190 188 189 183 183 179 179 180 174 169 152 130 119 112 109 104 117 129 135 145 142 143 153 168 165 179 181 170
239 196 225 239 253 262 236 261 240 192 220 215 211 209 207 204 201 198 196 193 192 185 185 188 182 182 179 184 176 187 175 156 144 144 131 127 113 115 126 134 144 145 147 162 164 172 204 203 211
165 169 177 218 243 252 239 247 258 198 226 219 204 204 204 202 200 197 192 189 185 182 182 185 183 182 178 183 183 185 171 169 160 158 143 141 130 119 121 132 147 148 150 158 170 177 185 212 178
203 216 221 218 221 241 188 243 257 348 257 249 224 206 201 199 196 192 186 186 184 184 184 184 185 183 182 185 186 180 179 180 177 166 156 154 142 135 132 137 140 140 144 143 154 168 171 172 168
209 225 240 257 253 236 204 241 235 87 262 256 226 206 195 192 192 190 187 186 186 185 185 186 188 185 185 188 186 183 174 181 174 172 161 155 146 136 136 137 129 128 133 136 140 147 149 146 138
203 221 253 275 276 265 233 237 237 176 193 184 191 191 189 188 186 187 185 185 185 184 185 188 188 187 186 187 184 182 180 180 179 180 169 159 147 138 142 139 135 124 119 121 131 130 130 121 111
236 204 210 234 257 256 247 244 231 181 196 170 177 185 186 183 182 182 182 184 184 183 183 187 189 187 185 184 185 185 183 180 185 180 173 169 155 143 142 147 141 134 129 125 122 123 112 121 106
188 202 219 231 246 265 263 187 70 346 314 252 192 185 181 180 181 181 181 182 181 179 181 185 187 187 185 186 185 184 179 182 181 181 175 176 165 159 154 155 150 144 140 136 131 130 129 126 123
218 217 217 227 230 244 266 254 97 351 326 282 217 180 180 179 179 179 180 179 180 182 185 188 188 187 188 188 187 187 180 182 184 183 180 176 166 163 160 156 156 146 144 140 139 139 138 132 128
Height
1520 1520 1520 1521 1519 1517 1522 1522 1520 1523 1525 1528 1528 1528 1528 1531 1534 1541 1541 1538 1538 1538 1538 1537 1536 1536 1537 1537 1537 1538 1538 1539 1539 1540 1540 1541 1542 1542 1543 1544 1544 1545 1545 1546 1546 1546 1547 1547 1547
1521 1520 1522 1521 1516 1522 1526 1523 1524 1525 1528 1530 1530 1531 1531 1535 1538 1540 1540 1539 1539 1539 1539 1538 1537 1537 1538 1538 1538 1538 1539 1539 1540 1540 1541 1542 1542 1543 1544 1545 1545 1546 1546 1547 1547 1547 1548 1548 1548
1521 1521 1523 1518 1517 1522 1526 1525 1526 1528 1530 1530 1532 1533 1535 1538 1540 1541 1541 1541 1541 1541 1541 1540 1539 1539 1539 1539 1539 1540 1540 1540 1541 1541 1542 1542 1543 1544 1544 1545 1546 1546 1547 1547 1548 1548 1549 1549 1549
1522 1523 1522 1519 1523 1524 1524 1525 1528 1529 1531 1532 1533 1536 1539 1541 1542 1542 1542 1542 1543 1543 1543 1542 1541 1541 1541 1541 1541 1541 1541 1542 1542 1542 1543 1543 1544 1544 1545 1546 1546 1547 1548 1548 1549 1549 1549 1550 1550
1523 1522 1519 1522 1525 1526 1526 1528 1529 1529 1531 1533 1534 1537 1541 1543 1543 1543 1544 1544 1544 1544 1545 1544 1543 1543 1543 1543 1543 1543 1543 1543 1543 1544 1544 1544 1545 1545 1546 1546 1547 1548 1548 1549 1549 1550 1550 1551 1551
1524 1520 1521 1526 1527 1527 1528 1530 1530 1531 1533 1535 1536 1538 1543 1545 1545 1545 1546 1546 1546 1546 1546 1546 1545 1545 1545 1545 1545 1545 1545 1545 1545 1545 1545 1545 1546 1546 1547 1547 1548 1548 1549 1549 1550 1551 1551 1551 1552
1524 1520 1522 1524 1528 1529 1530 1531 1531 1532 1534 1537 1538 1539 1544 1546 1546 1547 1547 1547 1548 1548 1548 1548 1548 1548 1547 1547 1546 1547 1547 1546 1546 1546 1547 1547 1547 1548 1548 1549 1549 1549 1550 1551 1551 1552 1552 1553 1553
1524 1522 1524 1525 1528 1530 1532 1533 1534 1535 1536 1539 1540 1540 1544 1547 1547 1548 1549 1549 1550 1550 1550 1550 1550 1550 1550 1550 1549 1548 1548 1548 1548 1548 1548 1548 1549 1549 1550 1550 1550 1551 1551 1551 1552 1552 1553 1554 1554
1524 1523 1526 1527 1528 1530 1532 1534 1536 1538 1538 1540 1541 1542 1544 1546 1548 1549 1550 1551 1551 1552 1552 1552 1552 1552 1552 1552 1551 1551 1550 1550 1551 1551 1550 1551 1552 1552 1552 1552 1552 1552 1552 1552 1553 1553 1554 1555 1555
1524 1524 1526 1527 1527 1529 1533 1534 1536 1537 1539 1541 1543 1544 1546 1547 1549 1550 1551 1552 1553 1554 1554 1554 1554 1554 1554 1553 1553 1553 1553 1553 1553 1553 1553 1553 1553 1553 1553 1553 1553 1553 1553 1554 1554 1554 1555 1556 1558
1524 1525 1527 1529 1530 1531 1533 1535 1537 1536 1538 1540 1542 1545 1547 1548 1550 1551 1552 1553 1554 1555 1555 1555 1555 1555 1555 1555 1555 1555 1555 1555 1555 1555 1554 1554 1555 1555 1555 1556 1555 1555 1555 1556 1555 1556 1557 1558 1558
1527 1528 1529 1531 1532 1533 1534 1536 1537 1538 1540 1542 1543 1545 1547 1549 1550 1552 1553 1554 1555 1556 1556 1556 1556 1556 1556 1556 1556 1556 1557 1557 1557 1556 1556 1556 1556 1557 1557 1557 1557 1557 1557 1557 1557 1558 1559 1559 1560
1527 1530 1532 1533 1534 1535 1536 1537 1538 1540 1542 1543 1544 1546 1548 1550 1551 1553 1554 1555 1556 1556 1557 1557 1557 1557 1557 1557 1557 1558 1558 1558 1558 1557 1558 1558 1558 1558 1558 1558 1558 1558 1558 1558 1558 1559 1560 1560 1561
1529 1530 1532 1533 1534 1536 1536 1538 1539 1541 1543 1544 1545 1547 1549 1550 1552 1553 1554 1555 1556 1557 1557 1558 1558 1558 1558 1558 1559 1559 1559 1559 1559 1559 1559 1559 1559 1559 1559 1560 1559 1559 1559 1560 1560 1561 1561 1562 1562
1530 1531 1532 1533 1534 1535 1536 1537 1537 1541 1543 1544 1545 1547 1549 1551 1552 1553 1554 1555 1556 1557 1558 1558 1558 1559 1559 1559 1560 1560 1560 1560 1560 1560 1561 1561 1561 1561 1561 1561 1561 1561 1561 1561 1561 1562 1562 1563 1563
1529 1529 1533 1533 1533 1535 1537 1537 1537 1540 1542 1543 1545 1547 1549 1550 1552 1553 1554 1555 1556 1557 1558 1558 1559 1559 1560 1560 1560 1561 1561 1561 1561 1561 1562 1562 1562 1562 1562 1562 1562 1562 1563 1563 1563 1563 1564 1564 1565
1529 1530 1531 1532 1532 1533 1533 1534 1536 1539 1541 1542 1544 1545 1547 1549 1551 1552 1553 1554 1555 1557 1558 1559 1559 1560 1560 1560 1561 1561 1562 1562 1562 1562 1563 1563 1563 1564 1564 1563 1564 1564 1564 1565 1565 1565 1565 1566 1566
1529 1528 1530 1530 1530 1531 1531 1531 1534 1538 1539 1540 1542 1544 1546 1547 1549 1551 1553 1554 1555 1556 1558 1559 1559 1560 1561 1561 1562 1562 1563 1563 1563 1563 1563 1563 1564 1564 1565 1565 1565 1565 1566 1566 1566 1566 1566 1567 1568
1524 1526 1528 1528 1528 1531 1530 1529 1529 1534 1537 1538 1539 1541 1543 1545 1548 1550 1552 1553 1554 1556 1557 1559 1559 1560 1561 1562 1563 1563 1564 1564 1564 1564 1564 1564 1564 1565 1565 1566 1566 1566 1567 1567 1568 1568 1568 1569 1569
1525 1527 1527 1528 1528 1529 1528 1527 1526 1529 1532 1534 1536 1538 1541 1543 1546 1548 1550 1552 1554 1555 1557 1559 1560 1560 1561 1562 1563 1563 1564 1564 1564 1564 1565 1565 1565 1565 1566 1566 1567 1567 1567 1568 1569 1569 1570 1570 1570
1524 1525 1526 1528 1529 1528 1528 1526 1523 1525 1529 1531 1533 1535 1538 1540 1543 1546 1548 1550 1552 1554 1556 1558 1559 1560 1561 1562 1563 1563 1564 1565 1565 1565 1565 1565 1565 1566 1566 1567 1567 1568 1569 1569 1569 1570 1570 1571 1571
1524 1522 1525 1527 1530 1529 1530 1531 1521 1519 1524 1527 1529 1532 1534 1537 1540 1543 1546 1548 1551 1553 1555 1557 1559 1560 1561 1562 1563 1564 1564 1565 1565 1566 1566 1566 1566 1566 1566 1567 1568 1569 1569 1570 1570 1571 1571 1571 1572
1522 1523 1524 1526 1527 1529 1527 1529 1518 1518 1520 1520 1524 1527 1530 1534 1537 1540 1543 1546 1549 1551 1554 1556 1558 1559 1560 1561 1562 1563 1564 1565 1565 1565 1566 1567 1567 1567 1567 1567 1568 1569 1569 1570 1570 1570 1571 1572 1572
1524 1525 1526 1526 1526 1533 1524 1527 1522 1513 1515 1516 1519 1523 1527 1530 1534 1537 1541 1544 1547 1549 1552 1554 1556 1558 1559 1560 1562 1563 1563 1564 1565 1565 1566 1567 1567 1567 1568 1568 1569 1569 1570 1570 1570 1570 1571 1571 1572
1522 1525 1532 1534 1534 1528 1521 1524 1518 1510 1512 1514 1516 1520 1523 1527 1530 1534 1537 1541 1544 1547 1550 1552 1554 1556 1558 1560 1561 1562 1563 1564 1565 1566 1566 1567 1568 1568 1568 1568 1569 1569 1569 1570 1570 1570 1571 1571 1572
1520 1521 1531 1537 1533 1525 1523 1522 1511 1510 1512 1514 1515 1517 1520 1524 1527 1531 1534 1538 1541 1544 1547 1550 1553 1555 1557 1559 1560 1561 1562 1563 1565 1565 1566 1567 1568 1568 1568 1569 1569 1569 1569 1570 1570 1571 1571 1572 1572
1519 1520 1518 1523 1524 1526 1518 1513 1508 1509 1510 1512 1514 1516 1518 1521 1525 1528 1532 1536 1539 1542 1545 1548 1551 1553 1556 1557 1559 1561 1562 1563 1564 1565 1566 1567 1568 1568 1568 1569 1569 1569 1569 1570 1571 1571 1571 1571 1572
1516 1516 1521 1525 1531 1530 1522 1517 1512 1508 1508 1510 1512 1514 1516 1519 1522 1526 1530 1533 1537 1540 1544 1547 1549 1552 1554 1556 1558 1560 1561 1562 1563 1564 1565 1567 1567 1568 1568 1569 1570 1569 1570 1570 1570 1571 1571 1572 1571
1519 1519 1518 1518 1520 1527 1526 1518 1505 1506 1507 1508 1510 1513 1515 1517 1520 1524 1528 1531 1535 1538 1542 1545 1547 1550 1553 1555 1557 1559 1560 1561 1562 1564 1565 1566 1567 1568 1568 1569 1569 1570 1570 1570 1570 1571 1571 1572 1572
1512 1513 1515 1522 1522 1520 1522 1517 1504 1506 1507 1508 1509 1512 1514 1516 1519 1522 1526 1529 1533 1536 1539 1542 1545 1548 1550 1553 1555 1557 1559 1560 1562 1563 1564 1565 1567 1567 1568 1569 1569 1570 1570 1571 1571 1571 1571 1572 1572